Location: Haulchin
(50.3172°N, 3.4360°E)
Time: 10:25:15
(UTC+00:00)

Genesis I - Pass Details

Date: 23 May 2024
Orbit: 433 x 467 km, 64.5° (Epoch: 14 June)

Event Time Altitude Azimuth Distance (km) Brightness Sun altitude
Exits shadow 02:06:59 18° 187° (S) 1,182 4.5 -12.2°
Maximum altitude 02:09:15 40° 124° (ESE) 674 3.8 -12.0°
Drops below altitude 10° 02:12:36 10° 53° (NE) 1,599 7.0 -11.7°
Sets 02:14:49 0° 46° (NE) 2,485 8.6 -11.5°
